This is the latest recevied weather packets stored in our database for station/object NC4M. If no packets are shown the sender has not sent any weather packets the latest 10 day(s).
| Time | Temp. | Humidity | Pressure | Rain* | Wind** | Luminosity | Snow |
|---|---|---|---|---|---|---|---|
| 1777934178 | 26.67° C | 39% | 1004 hPa | 0 mm | - | 107 W/m² | - |
| 1777933874 | 27.22° C | 40% | 1004.1 hPa | 0 mm | - | 146 W/m² | - |
| 1777933571 | 27.78° C | 40% | 1004.3 hPa | 0 mm | - | 98 W/m² | - |
| 1777933268 | 27.78° C | 37% | 1004.1 hPa | 0 mm | - | 162 W/m² | - |
| 1777932965 | 28.33° C | 36% | 1004.1 hPa | 0 mm | - | 340 W/m² | - |
| 1777932661 | 28.33° C | 36% | 1004.5 hPa | 0 mm | - | 367 W/m² | - |
| 1777932358 | 27.78° C | 38% | 1004.2 hPa | 0 mm | - | 366 W/m² | - |
| 1777932055 | 28.33° C | 39% | 1004.2 hPa | 0 mm | - | 358 W/m² | - |
| 1777931752 | 28.33° C | 39% | 1004.3 hPa | 0 mm | - | 411 W/m² | - |
| 1777931449 | 28.89° C | 36% | 1004.2 hPa | 0 mm | - | 402 W/m² | - |
| 1777931145 | 28.89° C | 37% | 1004.6 hPa | 0 mm | - | 445 W/m² | - |
| 1777930841 | 29.44° C | 38% | 1004.6 hPa | 0 mm | - | 469 W/m² | - |
| 1777930538 | 29.44° C | 39% | 1004.1 hPa | 0 mm | - | 472 W/m² | - |
| 1777930236 | 30° C | 39% | 1004.5 hPa | 0 mm | - | 502 W/m² | - |
| 1777929931 | 29.44° C | 44% | 1004.6 hPa | 0 mm | - | 491 W/m² | - |
| 1777929628 | 28.89° C | 44% | 1004.7 hPa | 0 mm | - | 517 W/m² | - |
| 1777929325 | 28.89° C | 41% | 1004.5 hPa | 0 mm | - | 548 W/m² | - |
| 1777929022 | 28.33° C | 43% | 1004.5 hPa | 0 mm | - | 579 W/m² | - |
| 1777928719 | 28.33° C | 39% | 1004.3 hPa | 0 mm | - | 333 W/m² | - |
| 1777928416 | 27.78° C | 42% | 1004.3 hPa | 0 mm | - | 462 W/m² | - |
| 1777928114 | 27.78° C | 40% | 1004.2 hPa | 0 mm | - | 315 W/m² | - |
| 1777927812 | 28.33° C | 39% | 1004.5 hPa | 0 mm | - | 621 W/m² | - |
| 1777927510 | 28.89° C | 39% | 1004.7 hPa | 0 mm | - | 542 W/m² | - |
| 1777927208 | 28.33° C | 43% | 1004.6 hPa | 0 mm | - | 614 W/m² | - |
| 1777926906 | 28.33° C | 41% | 1004.6 hPa | 0 mm | - | 537 W/m² | - |
* Rain latest hour (hover to see other rain measurements)
** Current wind speed in m/s (hover to see current wind gust speed)